{"data":{"norad_id":65434,"intl_designator":"2025-194A","name":"STARLINK-35142","alt_names":[],"object_type":"PAYLOAD","status":"ACTIVE","operator":null,"country":"US","launch_date":"2025-09-03","launch_site_code":"AFWTR","launch_vehicle":null,"mission":null,"orbit_class":"UNKNOWN","rcs_meters":null,"size_class":null,"mass_kg":null,"dimensions":null,"purposes":["comms"],"wikipedia_slug":null,"has_3d_model":false,"image_url":null,"decayed_at":null,"tle_current":{"epoch":"2026-05-25T02:46:25.879584Z","epoch_age_seconds":71983,"freshness":"FRESH","line1":"1 65434U 25194A   26145.11557731  .00011667  00000+0  81137-3 0  9994","line2":"2 65434  97.4499 359.2669 0002524  84.9342 275.2173 15.05646286 41149","mean_motion":15.05646286,"eccentricity":0.0002524,"inclination_deg":97.4499,"raan_deg":359.2669,"arg_perigee_deg":84.9342,"mean_anomaly_deg":275.2173,"bstar":0.00081137,"rev_number":4114,"period_min":95.639992831623,"perigee_km":547.77400511981,"apogee_km":551.27108765883,"semimajor_km":6927.6595463893,"source":"CELESTRAK","updated_at":"2026-05-25T13:38:20.805559Z"}}}